This demonstration page uses our WeatherBlox Daily Observations layout. Learn more.

Left ArrowRight Arrow

34.74481, -87.66753

Hourly Observations for May 29, 2022

Temp ( °F °C ) Dew Point ( °F °C ) Humidity (%) Winds ( mph kmh ) Pressure ( in mb ) Visibility ( mi km ) Precip ( " mm )
12:53 am 00:53 Clear 60 15.6 58 14.4 93 93 Calm 29.93 1013 8 13 0.00 0.00
1:24 am 01:24 Clear with Mist and Fog 59 15 58 14.4 96 96 Calm 29.93 1013 2 3 0.00 0.00
1:34 am 01:34 Clear with Mist and Fog 58 14.4 57 13.9 97 97 Calm 29.93 1014 1 1 0.00 0.00
1:41 am 01:41 Clear with Mist and Fog 60 15.6 58 14.4 93 93 Calm 29.93 1013 2 3 0.00 0.00
1:49 am 01:49 Clear with Mist and Fog 59 15 57 14 94 94 Calm 29.93 1013 4 6 0.00 0.00
1:53 am 01:53 Clear with Mist and Fog 59 15 58 14.4 96 96 Calm 29.92 1013 2 3 0.00 0.00
2:08 am 02:08 Clear with Mist and Fog 59 15 58 14.4 96 96 Calm 29.93 1013 2 3 0.00 0.00
2:24 am 02:24 Clear with Mist and Fog 59 15 58 14.4 96 96 Calm 29.93 1013 1 1 0.00 0.00
2:32 am 02:32 Clear with Mist and Fog 58 14.4 57 13.9 97 97 Calm 29.93 1014 3 4 0.00 0.00
2:39 am 02:39 Clear with Mist and Fog 57 13.9 56 13.3 96 96 ESE 3 6 29.93 1014 3 5 0.00 0.00
2:51 am 02:51 Clear with Mist and Fog 57 14 57 14 100 100 Calm 29.93 1014 3 4 0.00 0.00
2:53 am 02:53 Clear with Mist and Fog 58 14.4 57 13.9 97 97 Calm 29.91 1013 3 4 0.00 0.00
3:01 am 03:01 Clear with Mist and Fog 59 15 57 13.9 93 93 Calm 29.93 1013 6 10 0.00 0.00
3:43 am 03:43 Clear with Mist and Fog 59 15 57 13.9 93 93 Calm 29.94 1014 2 3 0.00 0.00
3:53 am 03:53 Clear with Mist and Fog 57 13.9 56 13.3 96 96 E 3 6 29.92 1013 1 1 0.00 0.00
4:04 am 04:04 Clear with Mist and Fog 58 14.4 56 13.3 93 93 Calm 29.94 1014 2 2 0.00 0.00
4:20 am 04:20 Clear with Mist and Fog 58 14.4 57 13.9 97 97 Calm 29.94 1014 3 5 0.00 0.00
4:53 am 04:53 Clear with Mist and Fog 57 13.9 56 13.3 96 96 Calm 29.93 1014 3 5 0.00 0.00
5:13 am 05:13 Mostly Clear with Mist and Fog 58 14.4 56 13.3 93 93 Calm 29.95 1014 1 2 0.00 0.00
5:15 am 05:15 Mostly Cloudy with Mist and Fog 58 14.4 56 13.3 93 93 Calm 29.95 1014 1 1 0.00 0.00
5:28 am 05:28 Mostly Clear with Mist and Fog 57 13.9 56 13.3 96 96 Calm 29.96 1015 1 2 0.00 0.00
5:34 am 05:34 Mostly Cloudy with Mist and Fog 57 13.9 56 13.3 96 96 Calm 29.96 1015 1 1 0.00 0.00
5:44 am 05:44 Mostly Cloudy with Fog 56 13.3 55 12.8 97 97 Calm 29.96 1015 0 0 0.00 0.00
5:51 am 05:51 Sunny with Fog 55 13 55 13 100 100 ESE 3 6 29.97 1015 0 0 0.00 0.00
5:53 am 05:53 Sunny with Fog 56 13.3 55 12.8 97 97 ESE 3 6 29.95 1014 1 1 0.00 0.00
5:57 am 05:57 Sunny with Mist and Fog 56 13.3 55 12.8 97 97 ESE 3 6 29.97 1015 3 4 0.00 0.00
6:04 am 06:04 Sunny with Mist and Fog 58 14.4 56 13.3 93 93 Calm 29.97 1015 5 8 0.00 0.00
6:53 am 06:53 Sunny 61 16.1 60 15.6 97 97 Calm 29.97 1015 8 13 0.00 0.00
7:53 am 07:53 Sunny 67 19.4 62 16.7 84 84 ESE 3 6 29.98 1015 10 16 0.00 0.00
8:53 am 08:53 Sunny 73 22.8 64 17.8 74 74 VRB 3 6 29.98 1015 10 16 0.00 0.00
9:53 am 09:53 Sunny 78 25.6 63 17.2 60 60 WSW 6 9 29.97 1015 10 16 0.00 0.00
10:53 am 10:53 Sunny 80 26.7 61 16.1 52 52 SSE 14 22 29.96 1015 10 16 0.00 0.00
11:53 am 11:53 Sunny 82 27.8 59 15 46 46 S 12 19 29.96 1014 10 16 0.00 0.00
12:53 pm 12:53 Sunny 83 28.3 59 15 44 44 S 10 17 29.95 1014 10 16 0.00 0.00
1:53 pm 13:53 Sunny 85 29.4 60 15.6 43 43 S 9 15 29.93 1014 10 16 0.00 0.00
2:53 pm 14:53 Partly Cloudy 86 30 60 15.6 42 42 S 12 19 29.92 1013 10 16 0.00 0.00
3:53 pm 15:53 Partly Cloudy 86 30 60 15.6 42 42 S 9 15 29.91 1013 10 16 0.00 0.00
4:53 pm 16:53 Partly Cloudy 85 29.4 59 15 42 42 SSE 10 17 29.91 1013 10 16 0.00 0.00
5:53 pm 17:53 Sunny 84 28.9 58 14.4 41 41 SSE 12 19 29.91 1013 10 16 0.00 0.00
6:53 pm 18:53 Sunny 82 27.8 61 16.1 49 49 SSE 7 11 29.91 1013 10 16 0.00 0.00
7:53 pm 19:53 Sunny 75 23.9 62 16.7 64 64 SE 3 6 29.91 1013 10 16 0.00 0.00
8:53 pm 20:53 Clear 70 21.1 62 16.7 76 76 Calm 29.91 1013 10 16 0.00 0.00
9:53 pm 21:53 Mostly Clear 69 20.6 62 16.7 78 78 ESE 5 7 29.93 1014 10 16 0.00 0.00
10:53 pm 22:53 Mostly Clear 68 20 63 17.2 84 84 SE 5 7 29.94 1014 10 16 0.00 0.00
11:53 pm 23:53 Clear 67 19.4 62 16.7 84 84 ESE 3 6 29.95 1014 10 16 0.00 0.00

Powered by AerisWeather